SKW6199 KPHX-KFSD

Flight info

Callsign SKW6199
Flight time 1h 59m
Altitude 39000
Route MRBIL1 JARPA RSK BRK FSD
Aircraft CRJ7/M-SDE3GRW/LB1

Departure

Time 2026-04-26 03:27
Airport Phoenix Sky Harbor International Airport (KPHX)

Arrival

Time 2026-04-26 05:26
Airport Sioux Falls Regional Airport (KFSD)
Time Latitude Longitude Altitude Speed Heading
2026-04-26 02:56 33.43663 -111.99498 1118 ft 0 kts 117°
2026-04-26 03:16 33.43650 -111.99498 1112 ft 3 kts 47°
2026-04-26 03:16 33.43663 -111.99505 1122 ft 4 kts 328°
2026-04-26 03:17 33.43686 -111.99522 1120 ft 4 kts 333°
2026-04-26 03:17 33.43711 -111.99531 1120 ft 4 kts 354°
2026-04-26 03:17 33.43714 -111.99531 1119 ft 0 kts
2026-04-26 03:20 33.43720 -111.99531 1120 ft 2 kts 354°
2026-04-26 03:20 33.43738 -111.99541 1116 ft 5 kts 324°
2026-04-26 03:21 33.43779 -111.99575 1117 ft 9 kts 347°
2026-04-26 03:21 33.43845 -111.99577 1120 ft 9 kts
2026-04-26 03:21 33.43902 -111.99544 1122 ft 10 kts 70°
2026-04-26 03:21 33.43904 -111.99441 1124 ft 15 kts 90°
2026-04-26 03:22 33.43903 -111.99313 1124 ft 11 kts 91°
2026-04-26 03:22 33.43881 -111.99232 1121 ft 11 kts 152°
2026-04-26 03:22 33.43800 -111.99227 1123 ft 12 kts 184°
2026-04-26 03:22 33.43712 -111.99227 1119 ft 13 kts 180°
2026-04-26 03:23 33.43618 -111.99227 1120 ft 14 kts 179°
2026-04-26 03:23 33.43519 -111.99226 1122 ft 15 kts 180°
2026-04-26 03:23 33.43420 -111.99242 1118 ft 14 kts 192°
2026-04-26 03:23 33.43348 -111.99246 1119 ft 5 kts 180°
2026-04-26 03:24 33.43312 -111.99247 1123 ft 5 kts 181°
2026-04-26 03:24 33.43272 -111.99248 1123 ft 6 kts 181°
2026-04-26 03:24 33.43234 -111.99249 1120 ft 5 kts 189°
2026-04-26 03:24 33.43209 -111.99261 1125 ft 3 kts 217°
2026-04-26 03:25 33.43202 -111.99269 1120 ft 0 kts 222°
2026-04-26 03:25 33.43200 -111.99271 1113 ft 2 kts 223°
2026-04-26 03:25 33.43182 -111.99293 1123 ft 6 kts 225°
2026-04-26 03:25 33.43146 -111.99334 1132 ft 8 kts 218°
2026-04-26 03:26 33.43107 -111.99362 1132 ft 7 kts 243°
2026-04-26 03:26 33.43104 -111.99501 1130 ft 44 kts 270°
2026-04-26 03:26 33.43105 -112.00186 1130 ft 118 kts 270°
2026-04-26 03:26 33.43108 -112.01403 1235 ft 165 kts 270°
2026-04-26 03:27 33.43095 -112.02794 1998 ft 170 kts 269°
2026-04-26 03:27 33.43095 -112.04220 2635 ft 174 kts 269°
2026-04-26 03:27 33.43100 -112.05703 3077 ft 184 kts 270°
2026-04-26 03:27 33.43144 -112.07301 3451 ft 199 kts 271°
2026-04-26 03:28 33.43209 -112.09039 3783 ft 220 kts 271°
2026-04-26 03:28 33.43276 -112.10971 4194 ft 243 kts 271°
2026-04-26 03:28 33.43325 -112.12333 4579 ft 252 kts 271°
2026-04-26 03:28 33.43399 -112.14432 5453 ft 252 kts 269°
2026-04-26 03:29 33.43555 -112.16536 6253 ft 259 kts 280°
2026-04-26 03:29 33.45032 -112.18833 7176 ft 279 kts 327°
2026-04-26 03:29 33.46867 -112.19671 7961 ft 287 kts 343°
2026-04-26 03:29 33.48217 -112.19894 8463 ft 292 kts 354°
2026-04-26 03:30 33.50263 -112.19907 9247 ft 296 kts 359°
2026-04-26 03:30 33.52340 -112.19776 9970 ft 300 kts
2026-04-26 03:30 33.54424 -112.19416 10643 ft 307 kts 11°
2026-04-26 03:30 33.56505 -112.18727 11257 ft 315 kts 13°
2026-04-26 03:31 33.58655 -112.17979 11640 ft 329 kts 13°
2026-04-26 03:31 33.60908 -112.17224 12098 ft 344 kts 17°
2026-04-26 03:31 33.62975 -112.15685 12520 ft 360 kts 42°
2026-04-26 03:31 33.64732 -112.13471 12932 ft 372 kts 49°
2026-04-26 03:32 33.66449 -112.11070 13343 ft 385 kts 49°
2026-04-26 03:32 33.68219 -112.08606 13890 ft 391 kts 48°
2026-04-26 03:32 33.70035 -112.06207 14472 ft 395 kts 46°
2026-04-26 03:32 33.71941 -112.03800 14957 ft 400 kts 45°
2026-04-26 03:33 33.73870 -112.01359 15361 ft 404 kts 46°
2026-04-26 03:33 33.75776 -111.98863 15754 ft 407 kts 49°
2026-04-26 03:33 33.77553 -111.96187 16178 ft 411 kts 53°
2026-04-26 03:33 33.79241 -111.93404 16596 ft 413 kts 54°
2026-04-26 03:34 33.80930 -111.90598 17003 ft 416 kts 53°
2026-04-26 03:34 33.82672 -111.87785 17399 ft 419 kts 52°
2026-04-26 03:34 33.84447 -111.84990 17774 ft 422 kts 52°
2026-04-26 03:34 33.86230 -111.82174 18152 ft 424 kts 52°
2026-04-26 03:35 33.88019 -111.79340 18455 ft 427 kts 52°
2026-04-26 03:35 33.89828 -111.76475 18706 ft 431 kts 52°
2026-04-26 03:35 33.91648 -111.73596 18991 ft 433 kts 52°
2026-04-26 03:35 33.93474 -111.70698 19245 ft 435 kts 52°
2026-04-26 03:36 33.95310 -111.67781 19462 ft 438 kts 52°
2026-04-26 03:36 33.97129 -111.64889 19755 ft 439 kts 52°
2026-04-26 03:36 33.98982 -111.61946 20004 ft 442 kts 52°
2026-04-26 03:36 34.01012 -111.59171 20263 ft 440 kts 37°
2026-04-26 03:37 34.03545 -111.57133 20483 ft 438 kts 26°
2026-04-26 03:37 34.06220 -111.55334 20711 ft 442 kts 25°
2026-04-26 03:37 34.08367 -111.53866 20920 ft 444 kts 26°
2026-04-26 03:37 34.11008 -111.51922 21197 ft 447 kts 28°
2026-04-26 03:38 34.13628 -111.49880 21460 ft 449 kts 29°
2026-04-26 03:38 34.16258 -111.47830 21710 ft 451 kts 29°
2026-04-26 03:38 34.18903 -111.45794 21936 ft 452 kts 28°
2026-04-26 03:38 34.21565 -111.43754 22144 ft 454 kts 28°
2026-04-26 03:39 34.24238 -111.41696 22347 ft 455 kts 28°
2026-04-26 03:39 34.26914 -111.39633 22536 ft 457 kts 28°
2026-04-26 03:39 34.29594 -111.37563 22708 ft 459 kts 28°
2026-04-26 03:39 34.32288 -111.35482 22903 ft 460 kts 28°
2026-04-26 03:40 34.34986 -111.33396 23092 ft 461 kts 28°
2026-04-26 03:40 34.37694 -111.31303 23239 ft 463 kts 28°
2026-04-26 03:40 34.40413 -111.29196 23378 ft 464 kts 28°
2026-04-26 03:40 34.43137 -111.27086 23514 ft 466 kts 28°
2026-04-26 03:41 34.45869 -111.24963 23574 ft 467 kts 28°
2026-04-26 03:41 34.48609 -111.22839 23693 ft 468 kts 28°
2026-04-26 03:41 34.51357 -111.20708 23811 ft 469 kts 28°
2026-04-26 03:41 34.54107 -111.18568 23933 ft 470 kts 28°
2026-04-26 03:42 34.56866 -111.16422 24049 ft 471 kts 28°
2026-04-26 03:42 34.59628 -111.14272 24140 ft 472 kts 28°
2026-04-26 03:42 34.62351 -111.12132 24318 ft 471 kts 31°
2026-04-26 03:42 34.64863 -111.09563 24527 ft 474 kts 42°
2026-04-26 03:43 34.67126 -111.06631 24627 ft 476 kts 46°
2026-04-26 03:43 34.69357 -111.03659 24716 ft 476 kts 45°
2026-04-26 03:43 34.71661 -111.00751 24806 ft 476 kts 43°
2026-04-26 03:43 34.73607 -110.98424 24876 ft 477 kts 41°
2026-04-26 03:44 34.75988 -110.95605 24977 ft 478 kts 41°
2026-04-26 03:44 34.78373 -110.92771 25079 ft 479 kts 41°
2026-04-26 03:44 34.80754 -110.89923 25187 ft 480 kts 42°
2026-04-26 03:44 34.83123 -110.87061 25274 ft 481 kts 42°
2026-04-26 03:45 34.85498 -110.84178 25381 ft 481 kts 42°
2026-04-26 03:45 34.87836 -110.81338 25476 ft 482 kts 42°
2026-04-26 03:45 34.90211 -110.78446 25569 ft 483 kts 42°
2026-04-26 03:45 34.92592 -110.75545 25702 ft 484 kts 42°
2026-04-26 03:46 34.94970 -110.72643 25872 ft 482 kts 43°
2026-04-26 03:46 34.97328 -110.69761 26116 ft 478 kts 42°
2026-04-26 03:46 34.99677 -110.66893 26357 ft 475 kts 42°
2026-04-26 03:47 35.03923 -110.61709 26681 ft 468 kts 42°
2026-04-26 03:47 35.06210 -110.58904 26926 ft 464 kts 42°
2026-04-26 03:47 35.08480 -110.56121 27183 ft 461 kts 42°
2026-04-26 03:47 35.10752 -110.53340 27438 ft 463 kts 42°
2026-04-26 03:48 35.13026 -110.50548 27700 ft 465 kts 42°
2026-04-26 03:48 35.15308 -110.47747 27966 ft 467 kts 42°
2026-04-26 03:48 35.17571 -110.44959 28232 ft 468 kts 42°
2026-04-26 03:48 35.19868 -110.42135 28502 ft 469 kts 42°
2026-04-26 03:49 35.22175 -110.39298 28713 ft 472 kts 42°
2026-04-26 03:49 35.24495 -110.36436 28887 ft 476 kts 42°
2026-04-26 03:49 35.26829 -110.33547 29035 ft 480 kts 43°
2026-04-26 03:49 35.29187 -110.30634 29185 ft 483 kts 43°
2026-04-26 03:50 35.31563 -110.27697 29326 ft 487 kts 43°
2026-04-26 03:50 35.33957 -110.24735 29472 ft 490 kts 43°
2026-04-26 03:50 35.36360 -110.21758 29616 ft 493 kts 43°
2026-04-26 03:50 35.38778 -110.18763 29767 ft 495 kts 43°
2026-04-26 03:51 35.41203 -110.15751 29902 ft 498 kts 43°
2026-04-26 03:51 35.46094 -110.09677 30145 ft 502 kts 43°
2026-04-26 03:51 35.48545 -110.06626 30328 ft 503 kts 43°
2026-04-26 03:52 35.51006 -110.03559 30512 ft 503 kts 42°
2026-04-26 03:52 35.53459 -110.00503 30705 ft 504 kts 42°
2026-04-26 03:52 35.55469 -109.97998 30931 ft 502 kts 42°
2026-04-26 03:52 35.57952 -109.94901 31116 ft 502 kts 42°
2026-04-26 03:53 35.60372 -109.91881 31291 ft 503 kts 42°
2026-04-26 03:53 35.62826 -109.88809 31454 ft 503 kts 42°
2026-04-26 03:53 35.65286 -109.85730 31618 ft 504 kts 42°
2026-04-26 03:53 35.67743 -109.82655 31782 ft 504 kts 42°
2026-04-26 03:54 35.70195 -109.79568 31928 ft 505 kts 44°
2026-04-26 03:54 35.72508 -109.76309 32171 ft 505 kts 49°
2026-04-26 03:54 35.74636 -109.72861 32329 ft 507 kts 52°
2026-04-26 03:54 35.76710 -109.69350 32476 ft 507 kts 51°
2026-04-26 03:55 35.78806 -109.65866 32614 ft 507 kts 50°
2026-04-26 03:55 35.80952 -109.62467 32750 ft 507 kts 49°
2026-04-26 03:55 35.83129 -109.59040 32882 ft 507 kts 49°
2026-04-26 03:55 35.85289 -109.55601 33071 ft 507 kts 50°
2026-04-26 03:56 35.87444 -109.52152 33244 ft 507 kts 50°
2026-04-26 03:56 35.89599 -109.48712 33362 ft 507 kts 50°
2026-04-26 03:56 35.91755 -109.45266 33486 ft 507 kts 50°
2026-04-26 03:56 35.93913 -109.41819 33618 ft 508 kts 49°
2026-04-26 03:57 35.96070 -109.38368 33747 ft 508 kts 49°
2026-04-26 03:57 35.98231 -109.34906 33864 ft 509 kts 50°
2026-04-26 03:57 36.00281 -109.31626 33966 ft 508 kts 49°
2026-04-26 03:58 36.04329 -109.25123 34147 ft 509 kts 50°
2026-04-26 03:58 36.08644 -109.18184 34341 ft 509 kts 50°
2026-04-26 03:59 36.12956 -109.11231 34505 ft 509 kts 49°
2026-04-26 03:59 36.15105 -109.07758 34662 ft 507 kts 50°
2026-04-26 03:59 36.17228 -109.04335 34777 ft 508 kts 50°
2026-04-26 04:00 36.21140 -108.98002 34801 ft 512 kts 50°
2026-04-26 04:00 36.25470 -108.90966 34805 ft 516 kts 50°
2026-04-26 04:01 36.29832 -108.83873 34802 ft 519 kts 50°
2026-04-26 04:01 36.34224 -108.76727 34820 ft 523 kts 50°
2026-04-26 04:02 36.38652 -108.69513 34812 ft 527 kts 50°
2026-04-26 04:02 36.43097 -108.62233 34812 ft 531 kts 50°
2026-04-26 04:03 36.47573 -108.54905 34819 ft 534 kts 50°
2026-04-26 04:03 36.52069 -108.47510 34829 ft 537 kts 50°
2026-04-26 04:04 36.56564 -108.40114 34898 ft 540 kts 50°
2026-04-26 04:04 36.61104 -108.32631 34935 ft 543 kts 50°
2026-04-26 04:05 36.65659 -108.25094 34968 ft 544 kts 50°
2026-04-26 04:05 36.70222 -108.17537 34969 ft 546 kts 50°
2026-04-26 04:06 36.74789 -108.09954 34961 ft 547 kts 50°
2026-04-26 04:06 36.79649 -108.02658 34926 ft 546 kts 45°
2026-04-26 04:07 36.84111 -107.96134 34900 ft 548 kts 47°
2026-04-26 04:07 36.88980 -107.88801 34855 ft 548 kts 47°
2026-04-26 04:08 36.93846 -107.81459 34824 ft 548 kts 47°
2026-04-26 04:08 36.96282 -107.77780 34940 ft 549 kts 47°
2026-04-26 04:08 36.98712 -107.74101 34948 ft 549 kts 47°
2026-04-26 04:09 37.03156 -107.67364 34974 ft 548 kts 47°
2026-04-26 04:09 37.08014 -107.59991 34968 ft 548 kts 47°
2026-04-26 04:10 37.12831 -107.52660 34948 ft 548 kts 47°
2026-04-26 04:10 37.17673 -107.45273 34924 ft 549 kts 47°
2026-04-26 04:11 37.22520 -107.37860 34863 ft 549 kts 47°
2026-04-26 04:11 37.27361 -107.30439 34983 ft 548 kts 47°
2026-04-26 04:12 37.32190 -107.23022 35030 ft 549 kts 47°
2026-04-26 04:12 37.37017 -107.15591 35041 ft 549 kts 47°
2026-04-26 04:13 37.41842 -107.08150 35056 ft 549 kts 47°
2026-04-26 04:13 37.46629 -107.00737 34978 ft 548 kts 47°
2026-04-26 04:14 37.50995 -106.93976 34931 ft 546 kts 47°
2026-04-26 04:14 37.55778 -106.86549 34861 ft 545 kts 47°
2026-04-26 04:15 37.60545 -106.79136 34861 ft 543 kts 47°
2026-04-26 04:15 37.65298 -106.71721 34879 ft 543 kts 47°
2026-04-26 04:16 37.70032 -106.64312 34939 ft 541 kts 48°
2026-04-26 04:16 37.73954 -106.58153 34951 ft 541 kts 49°
2026-04-26 04:17 37.79444 -106.49534 34961 ft 541 kts 49°
2026-04-26 04:17 37.83391 -106.43325 34961 ft 540 kts 49°
2026-04-26 04:18 37.88068 -106.35951 34931 ft 540 kts 49°
2026-04-26 04:18 37.92765 -106.28521 34894 ft 541 kts 49°
2026-04-26 04:19 37.97468 -106.21083 34781 ft 541 kts 49°
2026-04-26 04:19 38.01754 -106.14278 34770 ft 542 kts 49°
2026-04-26 04:20 38.06450 -106.06805 34753 ft 542 kts 49°
2026-04-26 04:20 38.11129 -105.99344 34755 ft 542 kts 49°
2026-04-26 04:21 38.15427 -105.92483 34770 ft 543 kts 49°
2026-04-26 04:21 38.20132 -105.84948 34781 ft 544 kts 49°
2026-04-26 04:22 38.24835 -105.77392 34818 ft 545 kts 49°
2026-04-26 04:22 38.29544 -105.69817 34814 ft 545 kts 49°
2026-04-26 04:23 38.34249 -105.62231 34838 ft 545 kts 49°
2026-04-26 04:23 38.38906 -105.54704 34853 ft 544 kts 49°
2026-04-26 04:24 38.43583 -105.47117 34878 ft 544 kts 49°
2026-04-26 04:24 38.48256 -105.39525 34868 ft 544 kts 49°
2026-04-26 04:25 38.52926 -105.31925 34885 ft 544 kts 49°
2026-04-26 04:25 38.57590 -105.24315 34916 ft 543 kts 49°
2026-04-26 04:26 38.62244 -105.16697 34916 ft 543 kts 49°
2026-04-26 04:26 38.66898 -105.09064 34906 ft 543 kts 49°
2026-04-26 04:27 38.71510 -105.01484 34922 ft 543 kts 49°
2026-04-26 04:27 38.75758 -104.94491 34986 ft 542 kts 49°
2026-04-26 04:28 38.80377 -104.86851 34966 ft 541 kts 49°
2026-04-26 04:28 38.84992 -104.79215 34996 ft 541 kts 50°
2026-04-26 04:29 38.89599 -104.71579 35008 ft 540 kts 49°
2026-04-26 04:29 38.94171 -104.63989 35018 ft 540 kts 49°
2026-04-26 04:30 38.98977 -104.56590 35015 ft 538 kts 45°
2026-04-26 04:30 39.03512 -104.50048 35007 ft 537 kts 45°
2026-04-26 04:31 39.08448 -104.42816 34985 ft 538 kts 46°
2026-04-26 04:31 39.13351 -104.35540 34960 ft 537 kts 46°
2026-04-26 04:32 39.18256 -104.28248 34949 ft 538 kts 46°
2026-04-26 04:32 39.23147 -104.20953 34949 ft 537 kts 45°
2026-04-26 04:33 39.28001 -104.13700 34956 ft 537 kts 46°
2026-04-26 04:33 39.32880 -104.06394 34962 ft 537 kts 46°
2026-04-26 04:34 39.37323 -103.99718 34976 ft 537 kts 46°
2026-04-26 04:34 39.42194 -103.92388 34992 ft 537 kts 45°
2026-04-26 04:35 39.47063 -103.85046 34969 ft 537 kts 45°
2026-04-26 04:35 39.51928 -103.77694 34967 ft 537 kts 45°
2026-04-26 04:36 39.56785 -103.70338 34969 ft 537 kts 45°
2026-04-26 04:36 39.61638 -103.62961 34986 ft 537 kts 45°
2026-04-26 04:37 39.66445 -103.55639 34981 ft 537 kts 45°
2026-04-26 04:37 39.71292 -103.48245 35004 ft 537 kts 45°
2026-04-26 04:38 39.76126 -103.40854 34999 ft 537 kts 45°
2026-04-26 04:38 39.80954 -103.33445 35010 ft 536 kts 45°
2026-04-26 04:39 39.85778 -103.26031 35005 ft 536 kts 45°
2026-04-26 04:39 39.90593 -103.18615 35016 ft 536 kts 46°
2026-04-26 04:40 39.95369 -103.11238 35009 ft 536 kts 45°
2026-04-26 04:40 40.00169 -103.03808 35019 ft 536 kts 45°
2026-04-26 04:41 40.04108 -102.97696 35025 ft 536 kts 46°
2026-04-26 04:41 40.08898 -102.90248 35027 ft 535 kts 46°
2026-04-26 04:42 40.13684 -102.82790 35033 ft 535 kts 46°
2026-04-26 04:42 40.18460 -102.75325 35030 ft 535 kts 46°
2026-04-26 04:43 40.23237 -102.67839 35044 ft 535 kts 46°
2026-04-26 04:43 40.27998 -102.60362 35040 ft 535 kts 46°
2026-04-26 04:44 40.32760 -102.52866 35042 ft 535 kts 46°
2026-04-26 04:44 40.37519 -102.45361 35045 ft 535 kts 46°
2026-04-26 04:45 40.42241 -102.37894 35041 ft 534 kts 46°
2026-04-26 04:45 40.46976 -102.30384 35051 ft 533 kts 46°
2026-04-26 04:46 40.51704 -102.22868 35059 ft 533 kts 46°
2026-04-26 04:46 40.56420 -102.15356 35062 ft 533 kts 46°
2026-04-26 04:47 40.61134 -102.07828 35059 ft 532 kts 46°
2026-04-26 04:47 40.65835 -102.00301 35062 ft 532 kts 46°
2026-04-26 04:48 40.72441 -101.89690 35060 ft 531 kts 46°
2026-04-26 04:48 40.77119 -101.82164 35070 ft 531 kts 46°
2026-04-26 04:49 40.81793 -101.74616 35065 ft 531 kts 46°
2026-04-26 04:49 40.86457 -101.67068 35061 ft 530 kts 46°
2026-04-26 04:50 40.91114 -101.59510 35063 ft 530 kts 46°
2026-04-26 04:50 40.95758 -101.51956 35064 ft 529 kts 46°
2026-04-26 04:51 41.00271 -101.44604 35091 ft 529 kts 46°
2026-04-26 04:51 41.04583 -101.37554 35077 ft 529 kts 46°
2026-04-26 04:52 41.09215 -101.29971 35072 ft 529 kts 46°
2026-04-26 04:52 41.13832 -101.22388 35068 ft 528 kts 46°
2026-04-26 04:53 41.18444 -101.14792 35074 ft 528 kts 46°
2026-04-26 04:53 41.23048 -101.07194 35072 ft 528 kts 47°
2026-04-26 04:54 41.27649 -100.99587 35089 ft 529 kts 47°
2026-04-26 04:54 41.31828 -100.92660 35079 ft 529 kts 47°
2026-04-26 04:55 41.36431 -100.85009 35083 ft 529 kts 47°
2026-04-26 04:55 41.41029 -100.77347 35083 ft 529 kts 47°
2026-04-26 04:56 41.45621 -100.69670 35088 ft 530 kts 47°
2026-04-26 04:56 41.50214 -100.61981 35107 ft 530 kts 47°
2026-04-26 04:57 41.54770 -100.54324 35098 ft 531 kts 47°
2026-04-26 04:57 41.59364 -100.46594 35095 ft 531 kts 47°
2026-04-26 04:58 41.63954 -100.38848 35096 ft 531 kts 47°
2026-04-26 04:58 41.68538 -100.31095 35095 ft 532 kts 47°
2026-04-26 04:59 41.73118 -100.23322 35098 ft 532 kts 47°
2026-04-26 04:59 41.77698 -100.15533 35111 ft 532 kts 47°
2026-04-26 05:00 41.82273 -100.07727 35105 ft 533 kts 47°
2026-04-26 05:00 41.86850 -99.99903 35105 ft 533 kts 47°
2026-04-26 05:01 41.90987 -99.92817 35105 ft 533 kts 47°
2026-04-26 05:01 41.95556 -99.84969 35104 ft 533 kts 47°
2026-04-26 05:02 42.00124 -99.77097 35126 ft 534 kts 47°
2026-04-26 05:02 42.04285 -99.69911 35118 ft 534 kts 47°
2026-04-26 05:03 42.08849 -99.62014 35114 ft 534 kts 47°
2026-04-26 05:03 42.13407 -99.54101 35121 ft 535 kts 47°
2026-04-26 05:04 42.17192 -99.47512 35114 ft 535 kts 47°
2026-04-26 05:04 42.21741 -99.39576 35116 ft 535 kts 47°
2026-04-26 05:05 42.26288 -99.31634 35128 ft 535 kts 47°
2026-04-26 05:05 42.30830 -99.23665 35123 ft 535 kts 47°
2026-04-26 05:06 42.35369 -99.15683 35125 ft 535 kts 47°
2026-04-26 05:06 42.39901 -99.07692 35110 ft 535 kts 47°
2026-04-26 05:07 42.44425 -98.99697 35103 ft 535 kts 48°
2026-04-26 05:07 42.48544 -98.92399 35094 ft 534 kts 48°
2026-04-26 05:08 42.53024 -98.84443 35087 ft 534 kts 48°
2026-04-26 05:08 42.57520 -98.76430 35085 ft 534 kts 48°
2026-04-26 05:09 42.62016 -98.68398 35089 ft 534 kts 48°
2026-04-26 05:09 42.66506 -98.60354 35099 ft 533 kts 48°
2026-04-26 05:10 42.70981 -98.52302 35133 ft 534 kts 49°
2026-04-26 05:10 42.73107 -98.48106 34897 ft 541 kts 53°
2026-04-26 05:10 42.75055 -98.43709 34670 ft 545 kts 56°
2026-04-26 05:11 42.76972 -98.39248 34436 ft 547 kts 56°
2026-04-26 05:11 42.78894 -98.34870 34207 ft 547 kts 54°
2026-04-26 05:11 42.80907 -98.30459 33953 ft 549 kts 53°
2026-04-26 05:11 42.82922 -98.26032 33544 ft 550 kts 54°
2026-04-26 05:12 42.84919 -98.21605 33047 ft 547 kts 54°
2026-04-26 05:12 42.86911 -98.17184 32333 ft 547 kts 54°
2026-04-26 05:12 42.88903 -98.12765 31626 ft 545 kts 54°
2026-04-26 05:12 42.90888 -98.08359 30921 ft 543 kts 54°
2026-04-26 05:13 42.92841 -98.04008 30246 ft 533 kts 54°
2026-04-26 05:13 42.94705 -97.99869 29491 ft 526 kts 55°
2026-04-26 05:13 42.96306 -97.96299 28857 ft 520 kts 55°
2026-04-26 05:13 42.98181 -97.92110 28015 ft 516 kts 56°
2026-04-26 05:14 43.00032 -97.87958 27166 ft 507 kts 56°
2026-04-26 05:14 43.01533 -97.84588 26481 ft 501 kts 57°
2026-04-26 05:14 43.03332 -97.80545 25664 ft 495 kts 57°
2026-04-26 05:14 43.05114 -97.76545 24876 ft 489 kts 58°
2026-04-26 05:15 43.06870 -97.72595 24110 ft 483 kts 58°
2026-04-26 05:15 43.08605 -97.68688 23267 ft 478 kts 58°
2026-04-26 05:15 43.10314 -97.64814 22380 ft 473 kts 58°
2026-04-26 05:15 43.12013 -97.60987 21519 ft 468 kts 58°
2026-04-26 05:16 43.13691 -97.57193 20569 ft 464 kts 58°
2026-04-26 05:16 43.15363 -97.53409 19587 ft 462 kts 58°
2026-04-26 05:16 43.17023 -97.49662 18628 ft 459 kts 58°
2026-04-26 05:16 43.18643 -97.45985 17609 ft 455 kts 58°
2026-04-26 05:17 43.20263 -97.42304 16589 ft 446 kts 58°
2026-04-26 05:17 43.21848 -97.38700 15579 ft 436 kts 58°
2026-04-26 05:17 43.23395 -97.35182 14644 ft 426 kts 58°
2026-04-26 05:17 43.24902 -97.31745 13768 ft 415 kts 58°
2026-04-26 05:18 43.26371 -97.28401 12855 ft 404 kts 59°
2026-04-26 05:18 43.27801 -97.25140 12036 ft 393 kts 59°
2026-04-26 05:18 43.29186 -97.21973 11341 ft 381 kts 59°
2026-04-26 05:18 43.30522 -97.18916 10669 ft 367 kts 60°
2026-04-26 05:19 43.31810 -97.15963 10011 ft 355 kts 60°
2026-04-26 05:19 43.33039 -97.13141 9752 ft 331 kts 60°
2026-04-26 05:19 43.34180 -97.10518 9524 ft 310 kts 61°
2026-04-26 05:19 43.35256 -97.08041 9293 ft 293 kts 61°
2026-04-26 05:20 43.36288 -97.05664 8844 ft 288 kts 61°
2026-04-26 05:20 43.37308 -97.03312 8315 ft 285 kts 62°
2026-04-26 05:20 43.38318 -97.00983 7805 ft 282 kts 62°
2026-04-26 05:20 43.39130 -96.99108 7393 ft 280 kts 62°
2026-04-26 05:21 43.40122 -96.96811 6823 ft 279 kts 62°
2026-04-26 05:21 43.41112 -96.94522 6255 ft 278 kts 62°
2026-04-26 05:21 43.42093 -96.92249 5647 ft 275 kts 62°
2026-04-26 05:21 43.43055 -96.90015 4991 ft 274 kts 62°
2026-04-26 05:22 43.44212 -96.87953 4287 ft 273 kts 45°
2026-04-26 05:22 43.45664 -96.86332 3789 ft 262 kts 35°
2026-04-26 05:22 43.47161 -96.85055 3569 ft 242 kts 33°
2026-04-26 05:22 43.48501 -96.83840 3470 ft 220 kts 35°
2026-04-26 05:23 43.49699 -96.82693 3433 ft 195 kts 36°
2026-04-26 05:23 43.50762 -96.81663 3144 ft 179 kts 36°
2026-04-26 05:23 43.51699 -96.80754 2867 ft 148 kts 36°
2026-04-26 05:23 43.52447 -96.80027 2661 ft 119 kts 37°
2026-04-26 05:24 43.53115 -96.79376 2495 ft 118 kts 37°
2026-04-26 05:24 43.53793 -96.78700 2305 ft 122 kts 36°
2026-04-26 05:24 43.54497 -96.78010 2135 ft 126 kts 35°
2026-04-26 05:24 43.55224 -96.77308 1991 ft 129 kts 35°
2026-04-26 05:25 43.55959 -96.76616 1795 ft 126 kts 35°
2026-04-26 05:25 43.56670 -96.75936 1613 ft 122 kts 34°
2026-04-26 05:25 43.57353 -96.75285 1450 ft 116 kts 34°
2026-04-26 05:25 43.57962 -96.74701 1433 ft 87 kts 35°
2026-04-26 05:26 43.58338 -96.74339 1431 ft 52 kts 35°
2026-04-26 05:26 43.58593 -96.74093 1433 ft 24 kts 34°
2026-04-26 05:26 43.58622 -96.74000 1434 ft 7 kts 137°
2026-04-26 05:26 43.58569 -96.73964 1433 ft 10 kts 155°
2026-04-26 05:27 43.58498 -96.73918 1433 ft 12 kts 155°
2026-04-26 05:27 43.58416 -96.73865 1433 ft 14 kts 155°
2026-04-26 05:27 43.58326 -96.73806 1433 ft 15 kts 155°
2026-04-26 05:27 43.58224 -96.73741 1433 ft 17 kts 155°
2026-04-26 05:28 43.58117 -96.73673 1433 ft 18 kts 155°
2026-04-26 05:28 43.58050 -96.73605 1432 ft 8 kts 99°
2026-04-26 05:28 43.58067 -96.73534 1432 ft 8 kts 67°
2026-04-26 05:28 43.58075 -96.73466 1432 ft 5 kts 112°
2026-04-26 05:29 43.58065 -96.73430 1432 ft 4 kts 110°
2026-04-26 05:29 43.58063 -96.73424 1432 ft 0 kts 110°